| time (UTC) | temp F | wind direction | speed knots | gust knots | rain 1hr in | rain 24hr in | rain mn in | humidity % | barometer mb |
| 20260509135050 | 73 | 167 | 0.9 | 4.3 | 0.00 | 0.00 | 0.00 | 88 | 1011.4 |
| 20260509134553 | 72 | 0 | 0.9 | 3.5 | 0.00 | 0.00 | 0.00 | 91 | 1011.6 |
| 20260509134551 | 73 | 77 | 0.9 | 2.6 | 0.00 | 0.00 | 0.00 | 89 | 1011.3 |
| 20260509134052 | 73 | 0 | 0.9 | 2.6 | 0.00 | 0.00 | 0.00 | 90 | 1011.3 |
| 20260509133550 | 72 | 360 | 0.9 | 2.6 | 0.00 | 0.00 | 0.00 | 91 | 1011.4 |
| 20260509133106 | 72 | 0 | 0.9 | 6.1 | 0.00 | 0.00 | 0.00 | 92 | 1011.4 |
| 20260509133052 | 72 | 292 | 0.0 | 1.7 | 0.00 | 0.00 | 0.00 | 91 | 1011.4 |
| 20260509132549 | 72 | 309 | 0.9 | 6.1 | 0.00 | 0.00 | 0.00 | 92 | 1011.4 |
| 20260509132049 | 72 | 298 | 2.6 | 4.3 | 0.00 | 0.00 | 0.00 | 93 | 1011.4 |
| 20260509131551 | 72 | 340 | 2.6 | 4.3 | 0.00 | 0.00 | 0.00 | 93 | 1011.2 |
| 20260509131549 | 72 | 0 | 0.0 | 0.0 | 0.00 | 0.00 | 0.00 | 91 | 1011.1 |
| 20260509131049 | 72 | 327 | 1.7 | 4.3 | 0.00 | 0.00 | 0.00 | 93 | 1011.2 |
| 20260509130549 | 72 | 332 | 1.7 | 5.2 | 0.00 | 0.00 | 0.00 | 93 | 1011.1 |
| 20260509130056 | 72 | 313 | 1.7 | 5.2 | 0.00 | 0.00 | 0.00 | 93 | 1011.2 |
| 20260509125549 | 71 | 340 | 1.7 | 3.5 | 0.00 | 0.00 | 0.00 | 93 | 1011.0 |
| 20260509125049 | 71 | 325 | 1.7 | 3.5 | 0.00 | 0.00 | 0.00 | 93 | 1011.2 |
| 20260509124605 | 71 | 293 | 0.9 | 6.1 | 0.00 | 0.00 | 0.00 | 91 | 1011.4 |
| 20260509124553 | 71 | 325 | 1.7 | 3.5 | 0.00 | 0.00 | 0.00 | 93 | 1011.1 |
| 20260509124049 | 71 | 254 | 0.9 | 2.6 | 0.00 | 0.00 | 0.00 | 93 | 1011.2 |
| 20260509123549 | 71 | 0 | 0.9 | 2.6 | 0.00 | 0.00 | 0.00 | 94 | 1010.8 |
| 20260509123052 | 71 | 262 | 0.0 | 7.8 | 0.00 | 0.00 | 0.00 | 94 | 1010.8 |
| 20260509123049 | 71 | 355 | 2.6 | 5.2 | 0.00 | 0.00 | 0.00 | 91 | 1011.6 |
| 20260509122549 | 71 | 262 | 2.6 | 7.8 | 0.00 | 0.00 | 0.00 | 94 | 1011.0 |
| 20260509122049 | 71 | 226 | 3.5 | 8.7 | 0.00 | 0.00 | 0.00 | 94 | 1011.0 |
| 20260509121554 | 71 | 241 | 3.5 | 8.7 | 0.00 | 0.00 | 0.00 | 94 | 1011.0 |
| 20260509121551 | 71 | 302 | 1.7 | 6.1 | 0.00 | 0.00 | 0.00 | 91 | 1011.4 |
| 20260509121049 | 71 | 214 | 5.2 | 11.3 | 0.00 | 0.00 | 0.00 | 94 | 1011.0 |
| 20260509120551 | 71 | 198 | 5.2 | 12.2 | 0.00 | 0.00 | 0.00 | 94 | 1010.8 |
| 20260509120059 | 71 | 180 | 6.1 | 12.2 | 0.00 | 0.00 | 0.00 | 94 | 1010.8 |
| 20260509120055 | 71 | 269 | 1.7 | 6.1 | 0.00 | 0.00 | 0.00 | 91 | 1010.2 |
| 20260509115549 | 71 | 158 | 5.2 | 10.4 | 0.00 | 0.00 | 0.00 | 94 | 1010.2 |
| 20260509115049 | 71 | 167 | 5.2 | 14.8 | 0.00 | 0.00 | 0.00 | 94 | 1010.0 |
| 20260509114552 | 71 | 154 | 7.8 | 14.8 | 0.00 | 0.00 | 0.00 | 94 | 1009.9 |
| 20260509114549 | 71 | 211 | 3.5 | 6.1 | 0.00 | 0.00 | 0.00 | 91 | 1010.0 |
| 20260509114049 | 71 | 167 | 7.8 | 13.9 | 0.00 | 0.00 | 0.00 | 94 | 1009.8 |
| 20260509113548 | 71 | 157 | 7.0 | 13.9 | 0.00 | 0.00 | 0.00 | 94 | 1009.7 |
| 20260509113053 | 71 | 336 | 2.6 | 10.4 | 0.00 | 0.00 | 0.00 | 91 | 1010.4 |
| 20260509112550 | 71 | 154 | 5.2 | 13.0 | 0.00 | 0.00 | 0.00 | 94 | 1009.6 |
| 20260509112049 | 70 | 172 | 7.0 | 13.9 | 0.00 | 0.00 | 0.00 | 94 | 1009.6 |
| 20260509111553 | 71 | 250 | 3.5 | 12.2 | 0.00 | 0.00 | 0.00 | 90 | 1009.5 |
| 20260509111551 | 70 | 144 | 5.2 | 13.9 | 0.00 | 0.00 | 0.00 | 94 | 1009.6 |
| 20260509111049 | 70 | 158 | 4.3 | 14.8 | 0.00 | 0.00 | 0.00 | 94 | 1009.6 |
| 20260509110549 | 70 | 145 | 7.8 | 17.4 | 0.00 | 0.00 | 0.00 | 94 | 1009.3 |
| 20260509110053 | 71 | 226 | 6.1 | 13.0 | 0.00 | 0.00 | 0.00 | 90 | 1009.2 |
| 20260509105548 | 70 | 136 | 10.4 | 20.9 | 0.00 | 0.00 | 0.00 | 94 | 1008.9 |
| 20260509105049 | 70 | 133 | 10.4 | 20.9 | 0.00 | 0.00 | 0.00 | 94 | 1009.0 |
| 20260509104605 | 71 | 113 | 10.4 | 17.4 | 0.00 | 0.00 | 0.00 | 94 | 1008.9 |
| 20260509104553 | 71 | 230 | 3.5 | 10.4 | 0.00 | 0.00 | 0.00 | 90 | 1009.4 |
| 20260509104045 | 71 | 158 | 7.0 | 16.5 | 0.00 | 0.00 | 0.00 | 94 | 1009.4 |
| 20260509103549 | 70 | 144 | 7.8 | 16.5 | 0.00 | 0.00 | 0.00 | 94 | 1009.3 |
| 20260509103107 | 70 | 111 | 10.4 | 18.2 | 0.00 | 0.00 | 0.00 | 94 | 1009.4 |
| 20260509103048 | 71 | 230 | 7.0 | 12.2 | 0.00 | 0.00 | 0.00 | 90 | 1009.0 |
| 20260509102549 | 70 | 130 | 8.7 | 18.2 | 0.00 | 0.00 | 0.00 | 94 | 1009.3 |
| 20260509102049 | 70 | 131 | 8.7 | 17.4 | 0.00 | 0.00 | 0.00 | 94 | 1009.4 |
| 20260509101556 | 70 | 111 | 8.7 | 15.6 | 0.00 | 0.00 | 0.00 | 94 | 1009.4 |
| 20260509101550 | 70 | 241 | 5.2 | 8.7 | 0.00 | 0.00 | 0.00 | 89 | 1009.6 |
| 20260509101049 | 70 | 133 | 8.7 | 13.9 | 0.00 | 0.00 | 0.00 | 94 | 1009.3 |
| 20260509100549 | 70 | 141 | 8.7 | 14.8 | 0.00 | 0.00 | 0.00 | 94 | 1009.2 |
| 20260509100057 | 70 | 234 | 3.5 | 6.1 | 0.00 | 0.00 | 0.00 | 89 | 1010.1 |
| 20260509100051 | 69 | 132 | 9.6 | 14.8 | 0.00 | 0.00 | 0.00 | 93 | 1009.1 |
| 20260509095549 | 69 | 136 | 10.4 | 14.8 | 0.00 | 0.00 | 0.00 | 93 | 1009.2 |
| 20260509095048 | 69 | 88 | 7.8 | 11.3 | 0.00 | 0.00 | 0.00 | 92 | 1009.7 |
| 20260509094554 | 69 | 96 | 2.6 | 5.2 | 0.00 | 0.00 | 0.00 | 92 | 1010.4 |
| 20260509094049 | 69 | 149 | 1.7 | 4.3 | 0.00 | 0.00 | 0.00 | 92 | 1010.7 |
| 20260509093550 | 70 | 153 | 0.9 | 3.5 | 0.00 | 0.00 | 0.00 | 92 | 1010.6 |
| 20260509093051 | 70 | 149 | 0.9 | 4.3 | 0.00 | 0.00 | 0.00 | 92 | 1010.7 |
| 20260509093049 | 71 | 0 | 0.9 | 3.5 | 0.00 | 0.00 | 0.00 | 88 | 1010.7 |
| 20260509092551 | 70 | 149 | 1.7 | 4.3 | 0.00 | 0.00 | 0.00 | 92 | 1010.6 |
| 20260509092049 | 70 | 150 | 1.7 | 4.3 | 0.00 | 0.00 | 0.00 | 91 | 1011.1 |
| 20260509091555 | 70 | 146 | 1.7 | 3.5 | 0.00 | 0.00 | 0.00 | 91 | 1011.0 |
| 20260509091552 | 71 | 259 | 0.9 | 3.5 | 0.00 | 0.00 | 0.00 | 88 | 1011.0 |
| 20260509091049 | 70 | 148 | 1.7 | 3.5 | 0.00 | 0.00 | 0.00 | 91 | 1011.1 |
| 20260509090549 | 70 | 142 | 1.7 | 3.5 | 0.00 | 0.00 | 0.00 | 91 | 1011.1 |
| 20260509090057 | 71 | 232 | 0.0 | 2.6 | 0.00 | 0.00 | 0.00 | 88 | 1011.3 |
| 20260509085549 | 70 | 142 | 0.9 | 3.5 | 0.00 | 0.00 | 0.00 | 90 | 1011.4 |
| 20260509085046 | 70 | 141 | 1.7 | 4.3 | 0.00 | 0.00 | 0.00 | 90 | 1011.4 |
| 20260509084559 | 71 | 0 | 0.0 | 3.5 | 0.00 | 0.00 | 0.00 | 88 | 1011.4 |
| 20260509084047 | 70 | 140 | 1.7 | 3.5 | 0.00 | 0.00 | 0.00 | 90 | 1011.4 |
| 20260509083548 | 70 | 140 | 1.7 | 3.5 | 0.00 | 0.00 | 0.00 | 89 | 1011.4 |
| 20260509083054 | 70 | 140 | 0.9 | 2.6 | 0.00 | 0.00 | 0.00 | 89 | 1011.6 |
| 20260509083051 | 71 | 231 | 1.7 | 4.3 | 0.00 | 0.00 | 0.00 | 87 | 1011.4 |
| 20260509082545 | 70 | 140 | 0.0 | 1.7 | 0.00 | 0.00 | 0.00 | 89 | 1011.5 |
| 20260509082047 | 70 | 0 | 0.0 | 3.5 | 0.00 | 0.00 | 0.00 | 89 | 1011.6 |
| 20260509081556 | 70 | 140 | 0.9 | 6.1 | 0.00 | 0.00 | 0.00 | 89 | 1011.7 |
| 20260509081049 | 70 | 140 | 2.6 | 6.1 | 0.00 | 0.00 | 0.00 | 88 | 1011.4 |
| 20260509080545 | 70 | 137 | 3.5 | 6.1 | 0.00 | 0.00 | 0.00 | 88 | 1011.4 |
| 20260509080056 | 71 | 229 | 0.0 | 1.7 | 0.00 | 0.00 | 0.00 | 87 | 1011.8 |
| 20260509080054 | 71 | 97 | 1.7 | 3.5 | 0.00 | 0.00 | 0.00 | 88 | 1011.7 |
| 20260509075550 | 71 | 96 | 0.9 | 2.6 | 0.00 | 0.00 | 0.00 | 88 | 1012.1 |
| 20260509075049 | 71 | 79 | 0.9 | 1.7 | 0.00 | 0.00 | 0.00 | 88 | 1012.0 |
| 20260509074602 | 71 | 229 | 0.0 | 3.5 | 0.00 | 0.00 | 0.00 | 87 | 1011.9 |
| 20260509074558 | 71 | 79 | 0.0 | 0.9 | 0.00 | 0.00 | 0.00 | 88 | 1011.9 |
| 20260509074049 | 71 | 0 | 0.0 | 0.9 | 0.00 | 0.00 | 0.00 | 88 | 1012.0 |
| 20260509073549 | 71 | 0 | 0.0 | 1.7 | 0.00 | 0.00 | 0.00 | 88 | 1012.0 |
| 20260509073058 | 71 | 228 | 1.7 | 4.3 | 0.00 | 0.00 | 0.00 | 87 | 1012.0 |
| 20260509073052 | 71 | 0 | 0.0 | 1.7 | 0.00 | 0.00 | 0.00 | 88 | 1012.1 |
| 20260509072551 | 71 | 79 | 0.0 | 1.7 | 0.00 | 0.00 | 0.00 | 88 | 1012.1 |
| 20260509072048 | 71 | 79 | 0.0 | 1.7 | 0.00 | 0.00 | 0.00 | 88 | 1012.2 |
| 20260509071608 | 71 | 0 | 1.7 | 2.6 | 0.00 | 0.00 | 0.00 | 87 | 1011.9 |
| 20260509071555 | 71 | 79 | 0.9 | 1.7 | 0.00 | 0.00 | 0.00 | 88 | 1012.0 |
| 20260509071049 | 71 | 79 | 0.9 | 1.7 | 0.00 | 0.00 | 0.00 | 88 | 1011.9 |
| 20260509070552 | 71 | 0 | 0.0 | 1.7 | 0.00 | 0.00 | 0.00 | 88 | 1011.7 |
| 20260509070059 | 71 | 79 | 0.0 | 1.7 | 0.00 | 0.00 | 0.00 | 88 | 1011.7 |
| 20260509070051 | 71 | 174 | 0.9 | 2.6 | 0.00 | 0.00 | 0.00 | 87 | 1011.7 |
| 20260509065548 | 71 | 79 | 0.0 | 1.7 | 0.00 | 0.00 | 0.00 | 88 | 1011.6 |
| 20260509065048 | 71 | 79 | 0.0 | 1.7 | 0.00 | 0.00 | 0.00 | 88 | 1011.4 |
| 20260509064553 | 71 | 184 | 1.7 | 4.3 | 0.00 | 0.00 | 0.00 | 87 | 1011.2 |
| 20260509064551 | 71 | 0 | 0.0 | 0.9 | 0.00 | 0.00 | 0.00 | 88 | 1011.3 |
| 20260509064053 | 71 | 0 | 0.0 | 1.7 | 0.00 | 0.00 | 0.00 | 88 | 1011.4 |
| 20260509063549 | 71 | 0 | 0.0 | 3.5 | 0.00 | 0.00 | 0.00 | 88 | 1011.3 |
| 20260509063107 | 71 | 0 | 0.9 | 5.2 | 0.00 | 0.00 | 0.00 | 88 | 1011.1 |
| 20260509063052 | 71 | 170 | 0.0 | 5.2 | 0.00 | 0.00 | 0.00 | 87 | 1011.1 |
| 20260509062549 | 71 | 79 | 1.7 | 7.0 | 0.00 | 0.00 | 0.00 | 88 | 1010.9 |
| 20260509062049 | 71 | 83 | 2.6 | 7.0 | 0.00 | 0.00 | 0.00 | 87 | 1010.9 |
| 20260509061613 | 71 | 71 | 3.5 | 7.0 | 0.00 | 0.00 | 0.00 | 87 | 1011.0 |
| 20260509061558 | 71 | 198 | 1.7 | 3.5 | 0.00 | 0.00 | 0.00 | 87 | 1011.3 |
| 20260509061049 | 71 | 63 | 2.6 | 3.5 | 0.00 | 0.00 | 0.00 | 87 | 1011.3 |
| 20260509060551 | 71 | 22 | 1.7 | 2.6 | 0.00 | 0.00 | 0.00 | 87 | 1011.5 |
| 20260509060104 | 71 | 204 | 0.9 | 2.6 | 0.00 | 0.00 | 0.00 | 87 | 1011.7 |
| 20260509060058 | 71 | 352 | 0.9 | 4.3 | 0.00 | 0.00 | 0.00 | 87 | 1011.6 |
| 20260509055549 | 71 | 349 | 0.9 | 4.3 | 0.00 | 0.00 | 0.00 | 88 | 1011.6 |
| 20260509055048 | 71 | 338 | 2.6 | 4.3 | 0.00 | 0.00 | 0.00 | 88 | 1011.5 |
| 20260509054607 | 71 | 207 | 0.0 | 2.6 | 0.00 | 0.00 | 0.00 | 87 | 1011.8 |
| 20260509054555 | 71 | 332 | 1.7 | 5.2 | 0.00 | 0.00 | 0.00 | 88 | 1011.7 |
| 20260509054048 | 71 | 329 | 2.6 | 5.2 | 0.00 | 0.00 | 0.00 | 87 | 1011.7 |
| 20260509053550 | 71 | 325 | 2.6 | 5.2 | 0.00 | 0.00 | 0.00 | 87 | 1011.7 |
| 20260509053055 | 71 | 333 | 2.6 | 5.2 | 0.00 | 0.00 | 0.00 | 87 | 1011.6 |
| 20260509052549 | 71 | 344 | 2.6 | 3.5 | 0.00 | 0.00 | 0.00 | 87 | 1011.5 |
| 20260509052048 | 71 | 342 | 1.7 | 2.6 | 0.00 | 0.00 | 0.00 | 87 | 1011.4 |
| 20260509051556 | 71 | 338 | 0.9 | 2.6 | 0.00 | 0.00 | 0.00 | 87 | 1011.5 |
| 20260509051049 | 71 | 338 | 0.0 | 2.6 | 0.00 | 0.00 | 0.00 | 87 | 1011.4 |
| 20260509050549 | 71 | 338 | 0.9 | 4.3 | 0.00 | 0.00 | 0.00 | 87 | 1011.3 |
| 20260509050059 | 71 | 219 | 0.9 | 1.7 | 0.00 | 0.00 | 0.00 | 86 | 1011.8 |
| 20260509050054 | 71 | 337 | 1.7 | 4.3 | 0.00 | 0.00 | 0.00 | 87 | 1011.4 |
| 20260509045549 | 71 | 331 | 2.6 | 4.3 | 0.00 | 0.00 | 0.00 | 86 | 1011.3 |
| 20260509045049 | 71 | 10 | 1.7 | 2.6 | 0.00 | 0.00 | 0.00 | 86 | 1011.2 |
| 20260509044554 | 71 | 113 | 0.0 | 5.2 | 0.00 | 0.00 | 0.00 | 86 | 1011.3 |
| 20260509044052 | 71 | 113 | 1.7 | 5.2 | 0.00 | 0.00 | 0.00 | 86 | 1011.0 |
| 20260509043546 | 71 | 114 | 2.6 | 5.2 | 0.00 | 0.00 | 0.00 | 86 | 1011.0 |
| 20260509043051 | 71 | 131 | 1.7 | 4.3 | 0.00 | 0.00 | 0.00 | 86 | 1011.1 |
| 20260509043049 | 71 | 0 | 0.0 | 1.7 | 0.00 | 0.00 | 0.00 | 86 | 1011.2 |
| 20260509042549 | 71 | 132 | 1.7 | 4.3 | 0.00 | 0.00 | 0.00 | 86 | 1010.9 |
| 20260509042049 | 71 | 177 | 1.7 | 2.6 | 0.00 | 0.00 | 0.00 | 86 | 1011.0 |
| 20260509041555 | 71 | 219 | 0.9 | 3.5 | 0.00 | 0.00 | 0.00 | 86 | 1011.0 |
| 20260509041552 | 71 | 187 | 0.0 | 0.0 | 0.00 | 0.00 | 0.00 | 86 | 1011.1 |
| 20260509041050 | 71 | 0 | 0.0 | 0.0 | 0.00 | 0.00 | 0.00 | 86 | 1011.1 |
| 20260509040547 | 71 | 0 | 0.0 | 0.0 | 0.00 | 0.00 | 0.00 | 86 | 1011.3 |
| 20260509040054 | 71 | 227 | 0.0 | 2.6 | 0.00 | 0.00 | 0.00 | 86 | 1011.1 |
| 20260509035550 | 71 | 0 | 0.0 | 0.9 | 0.00 | 0.00 | 0.00 | 85 | 1011.2 |
| 20260509035049 | 71 | 0 | 0.0 | 0.9 | 0.00 | 0.00 | 0.00 | 86 | 1011.2 |
| 20260509034601 | 71 | 0 | 0.0 | 0.0 | 0.00 | 0.00 | 0.00 | 86 | 1011.3 |
| 20260509034553 | 71 | 0 | 0.0 | 0.9 | 0.00 | 0.00 | 0.00 | 86 | 1011.0 |
| 20260509034050 | 71 | 0 | 0.0 | 1.7 | 0.00 | 0.00 | 0.00 | 86 | 1011.0 |
| 20260509033549 | 71 | 0 | 0.0 | 2.6 | 0.00 | 0.00 | 0.00 | 86 | 1011.0 |
| 20260509033053 | 71 | 279 | 0.9 | 2.6 | 0.00 | 0.00 | 0.00 | 86 | 1010.9 |
| 20260509032549 | 71 | 279 | 0.9 | 2.6 | 0.00 | 0.00 | 0.00 | 85 | 1010.8 |
| 20260509032046 | 71 | 278 | 1.7 | 3.5 | 0.00 | 0.00 | 0.00 | 86 | 1010.7 |
| 20260509031602 | 71 | 227 | 0.9 | 1.7 | 0.00 | 0.00 | 0.00 | 86 | 1010.9 |
| 20260509031553 | 71 | 244 | 1.7 | 3.5 | 0.00 | 0.00 | 0.00 | 86 | 1010.6 |
| 20260509031050 | 71 | 132 | 1.7 | 2.6 | 0.00 | 0.00 | 0.00 | 86 | 1010.7 |
| 20260509030546 | 71 | 132 | 0.9 | 2.6 | 0.00 | 0.00 | 0.00 | 85 | 1010.5 |
| 20260509030057 | 71 | 132 | 0.9 | 1.7 | 0.00 | 0.00 | 0.00 | 85 | 1010.5 |
| 20260509030055 | 71 | 0 | 0.0 | 1.7 | 0.00 | 0.00 | 0.00 | 86 | 1010.5 |
| 20260509025545 | 71 | 132 | 0.9 | 1.7 | 0.00 | 0.00 | 0.00 | 85 | 1010.2 |
| 20260509025046 | 71 | 131 | 0.0 | 1.7 | 0.00 | 0.00 | 0.00 | 85 | 1010.1 |
| 20260509024556 | 71 | 0 | 0.0 | 1.7 | 0.00 | 0.00 | 0.00 | 85 | 1010.1 |
| 20260509024554 | 71 | 0 | 0.0 | 0.9 | 0.00 | 0.00 | 0.00 | 85 | 1010.3 |
| 20260509024049 | 71 | 132 | 0.9 | 1.7 | 0.00 | 0.00 | 0.00 | 85 | 1010.1 |
| 20260509023550 | 71 | 131 | 0.9 | 1.7 | 0.00 | 0.00 | 0.00 | 84 | 1010.0 |
| 20260509023059 | 71 | 227 | 0.9 | 1.7 | 0.00 | 0.00 | 0.00 | 84 | 1010.2 |
| 20260509023054 | 72 | 131 | 0.0 | 1.7 | 0.00 | 0.00 | 0.00 | 84 | 1009.9 |
| 20260509022549 | 72 | 131 | 0.0 | 1.7 | 0.00 | 0.00 | 0.00 | 83 | 1009.9 |
| 20260509022050 | 72 | 0 | 0.9 | 1.7 | 0.00 | 0.00 | 0.00 | 83 | 1009.9 |
| 20260509021605 | 71 | 0 | 0.0 | 0.0 | 0.00 | 0.00 | 0.00 | 83 | 1009.9 |
| 20260509021553 | 73 | 131 | 0.9 | 1.7 | 0.00 | 0.00 | 0.00 | 83 | 1009.7 |
| 20260509021049 | 73 | 131 | 0.0 | 1.7 | 0.00 | 0.00 | 0.00 | 83 | 1009.6 |
| 20260509020545 | 73 | 0 | 0.0 | 1.7 | 0.00 | 0.00 | 0.00 | 82 | 1009.8 |
| 20260509020056 | 73 | 0 | 0.0 | 1.7 | 0.00 | 0.00 | 0.00 | 82 | 1009.7 |
| 20260509020053 | 72 | 0 | 0.0 | 0.0 | 0.00 | 0.00 | 0.00 | 82 | 1009.7 |
| 20260509015546 | 73 | 131 | 0.9 | 3.5 | 0.00 | 0.00 | 0.00 | 82 | 1009.6 |
| 20260509015047 | 73 | 131 | 0.9 | 3.5 | 0.00 | 0.00 | 0.00 | 81 | 1009.5 |
| 20260509014553 | 73 | 131 | 1.7 | 3.5 | 0.00 | 0.00 | 0.00 | 81 | 1009.6 |
| 20260509014550 | 73 | 0 | 0.0 | 0.9 | 0.00 | 0.00 | 0.00 | 81 | 1009.7 |
| 20260509014047 | 73 | 132 | 1.7 | 3.5 | 0.00 | 0.00 | 0.00 | 81 | 1009.5 |
| 20260509013545 | 73 | 134 | 0.9 | 3.5 | 0.00 | 0.00 | 0.00 | 81 | 1009.3 |
| 20260509013109 | 73 | 227 | 0.0 | 2.6 | 0.00 | 0.00 | 0.00 | 81 | 1009.5 |
| 20260509013058 | 73 | 134 | 1.7 | 3.5 | 0.00 | 0.00 | 0.00 | 81 | 1009.5 |
| 20260509012549 | 73 | 131 | 1.7 | 6.1 | 0.00 | 0.00 | 0.00 | 81 | 1009.4 |
| 20260509012049 | 73 | 134 | 1.7 | 7.8 | 0.00 | 0.00 | 0.00 | 81 | 1009.3 |
| 20260509011557 | 73 | 136 | 2.6 | 7.8 | 0.00 | 0.00 | 0.00 | 80 | 1009.4 |
| 20260509011549 | 74 | 0 | 0.0 | 2.6 | 0.00 | 0.00 | 0.00 | 80 | 1009.4 |
| 20260509011049 | 74 | 111 | 3.5 | 7.8 | 0.00 | 0.00 | 0.00 | 80 | 1009.3 |
| 20260509010549 | 74 | 123 | 4.3 | 8.7 | 0.00 | 0.00 | 0.00 | 79 | 1009.3 |
| 20260509010054 | 74 | 118 | 4.3 | 8.7 | 0.00 | 0.00 | 0.00 | 79 | 1009.2 |
| 20260509010050 | 74 | 227 | 0.9 | 5.2 | 0.00 | 0.00 | 0.00 | 79 | 1009.3 |
| 20260509005549 | 74 | 110 | 3.5 | 7.0 | 0.00 | 0.00 | 0.00 | 79 | 1009.1 |
| 20260509005048 | 74 | 107 | 3.5 | 6.1 | 0.00 | 0.00 | 0.00 | 79 | 1009.2 |
| 20260509004602 | 74 | 107 | 2.6 | 7.8 | 0.00 | 0.00 | 0.00 | 78 | 1009.1 |
| 20260509004548 | 75 | 230 | 0.9 | 9.6 | 0.00 | 0.00 | 0.00 | 78 | 1009.3 |
| 20260509004049 | 75 | 109 | 2.6 | 7.8 | 0.00 | 0.00 | 0.00 | 78 | 1009.1 |
| 20260509003548 | 75 | 128 | 3.5 | 10.4 | 0.00 | 0.00 | 0.00 | 78 | 1009.0 |
| 20260509003053 | 75 | 114 | 1.7 | 10.4 | 0.00 | 0.00 | 0.00 | 78 | 1009.0 |
| 20260509003047 | 75 | 213 | 4.3 | 13.0 | 0.00 | 0.00 | 0.00 | 78 | 1009.1 |
| 20260509002548 | 75 | 111 | 6.1 | 10.4 | 0.00 | 0.00 | 0.00 | 78 | 1009.0 |
| 20260509002051 | 75 | 121 | 6.1 | 13.0 | 0.00 | 0.00 | 0.00 | 78 | 1008.8 |
| 20260509001554 | 75 | 146 | 7.0 | 13.9 | 0.00 | 0.00 | 0.00 | 77 | 1008.8 |
| 20260509001550 | 75 | 213 | 5.2 | 11.3 | 0.00 | 0.00 | 0.00 | 77 | 1009.0 |
| 20260509001048 | 75 | 123 | 9.6 | 13.9 | 0.00 | 0.00 | 0.00 | 76 | 1008.9 |
| 20260509000548 | 76 | 119 | 8.7 | 13.9 | 0.00 | 0.00 | 0.00 | 76 | 1009.0 |
| 20260509000054 | 76 | 228 | 5.2 | 11.3 | 0.00 | 0.00 | 0.00 | 77 | 1009.0 |
| 20260508235549 | 76 | 92 | 9.6 | 13.9 | 0.00 | 0.00 | 0.00 | 76 | 1009.0 |
| 20260508235048 | 77 | 96 | 7.8 | 11.3 | 0.00 | 0.00 | 0.00 | 75 | 1009.0 |
| 20260508234554 | 77 | 132 | 6.1 | 10.4 | 0.00 | 0.00 | 0.00 | 75 | 1008.9 |
| 20260508234550 | 76 | 225 | 3.5 | 7.8 | 0.00 | 0.00 | 0.00 | 77 | 1009.2 |
| 20260508234049 | 77 | 78 | 7.8 | 10.4 | 0.00 | 0.00 | 0.00 | 75 | 1009.0 |
| 20260508233549 | 77 | 75 | 7.0 | 12.2 | 0.00 | 0.00 | 0.00 | 74 | 1009.1 |
| 20260508233054 | 77 | 98 | 5.2 | 12.2 | 0.00 | 0.00 | 0.00 | 74 | 1009.1 |
| 20260508233048 | 76 | 183 | 3.5 | 10.4 | 0.00 | 0.00 | 0.00 | 77 | 1009.4 |
| 20260508232548 | 77 | 69 | 7.8 | 12.2 | 0.00 | 0.00 | 0.00 | 73 | 1009.0 |
| 20260508232048 | 78 | 115 | 7.0 | 10.4 | 0.00 | 0.00 | 0.00 | 73 | 1008.8 |
| 20260508231600 | 78 | 96 | 3.5 | 10.4 | 0.00 | 0.00 | 0.00 | 73 | 1008.8 |
| 20260508231554 | 76 | 202 | 3.5 | 9.6 | 0.00 | 0.00 | 0.00 | 76 | 1009.1 |
| 20260508231050 | 77 | 74 | 6.1 | 10.4 | 0.00 | 0.00 | 0.00 | 74 | 1008.8 |
| 20260508230548 | 78 | 97 | 5.2 | 9.6 | 0.00 | 0.00 | 0.00 | 73 | 1008.9 |
| 20260508230059 | 77 | 62 | 5.2 | 9.6 | 0.00 | 0.00 | 0.00 | 72 | 1008.9 |
| 20260508225548 | 78 | 91 | 3.5 | 9.6 | 0.00 | 0.00 | 0.00 | 73 | 1009.0 |
| 20260508225048 | 77 | 88 | 4.3 | 9.6 | 0.00 | 0.00 | 0.00 | 74 | 1009.1 |
| 20260508224606 | 75 | 141 | 1.7 | 6.1 | 0.00 | 0.00 | 0.00 | 77 | 1009.8 |
| 20260508224550 | 76 | 76 | 5.2 | 9.6 | 0.00 | 0.00 | 0.00 | 74 | 1009.2 |
| 20260508224048 | 76 | 65 | 3.5 | 7.8 | 0.00 | 0.00 | 0.00 | 74 | 1009.5 |
| 20260508223549 | 76 | 56 | 2.6 | 7.8 | 0.00 | 0.00 | 0.00 | 74 | 1009.5 |
| 20260508223051 | 76 | 57 | 2.6 | 5.2 | 0.00 | 0.00 | 0.00 | 75 | 1009.7 |
| 20260508222548 | 75 | 36 | 2.6 | 6.1 | 0.00 | 0.00 | 0.00 | 75 | 1009.7 |
| 20260508222048 | 75 | 360 | 3.5 | 6.1 | 0.00 | 0.00 | 0.00 | 76 | 1009.8 |
| 20260508221557 | 75 | 27 | 3.5 | 6.1 | 0.00 | 0.00 | 0.00 | 75 | 1009.8 |
| 20260508221049 | 74 | 53 | 1.7 | 4.3 | 0.00 | 0.00 | 0.00 | 76 | 1009.8 |
| 20260508220548 | 73 | 360 | 0.9 | 4.3 | 0.00 | 0.00 | 0.00 | 78 | 1010.0 |
| 20260508220055 | 74 | 80 | 2.6 | 3.5 | 0.00 | 0.00 | 0.00 | 75 | 1010.5 |
| 20260508215548 | 72 | 350 | 2.6 | 7.0 | 0.00 | 0.00 | 0.00 | 79 | 1010.2 |
| 20260508215048 | 72 | 290 | 2.6 | 7.0 | 0.00 | 0.00 | 0.00 | 79 | 1010.4 |
| 20260508214555 | 73 | 74 | 0.9 | 3.5 | 0.00 | 0.00 | 0.00 | 76 | 1010.7 |
| 20260508214048 | 72 | 304 | 4.3 | 7.8 | 0.00 | 0.00 | 0.00 | 78 | 1010.4 |
| 20260508213549 | 72 | 331 | 3.5 | 5.2 | 0.00 | 0.00 | 0.00 | 78 | 1010.5 |
| 20260508213112 | 73 | 71 | 0.9 | 3.5 | 0.00 | 0.00 | 0.00 | 76 | 1010.9 |
| 20260508213054 | 72 | 315 | 2.6 | 4.3 | 0.00 | 0.00 | 0.00 | 78 | 1010.5 |
| 20260508212548 | 72 | 331 | 2.6 | 4.3 | 0.00 | 0.00 | 0.00 | 78 | 1010.5 |
| 20260508212048 | 72 | 350 | 2.6 | 4.3 | 0.00 | 0.00 | 0.00 | 78 | 1010.7 |
| 20260508211554 | 72 | 360 | 1.7 | 5.2 | 0.00 | 0.00 | 0.00 | 78 | 1010.7 |
| 20260508211552 | 73 | 0 | 0.0 | 2.6 | 0.00 | 0.00 | 0.00 | 77 | 1011.0 |
| 20260508211049 | 72 | 350 | 1.7 | 5.2 | 0.00 | 0.00 | 0.00 | 78 | 1010.8 |
| 20260508210551 | 72 | 344 | 1.7 | 6.1 | 0.00 | 0.00 | 0.00 | 77 | 1010.8 |
| 20260508210055 | 72 | 345 | 2.6 | 7.0 | 0.00 | 0.00 | 0.00 | 77 | 1010.9 |
| 20260508205548 | 72 | 292 | 3.5 | 7.0 | 0.00 | 0.00 | 0.00 | 77 | 1010.9 |
| 20260508205048 | 72 | 295 | 2.6 | 6.1 | 0.00 | 0.00 | 0.00 | 78 | 1011.0 |
| 20260508204556 | 72 | 255 | 2.6 | 6.1 | 0.00 | 0.00 | 0.00 | 76 | 1011.2 |
| 20260508204553 | 73 | 0 | 0.9 | 2.6 | 0.00 | 0.00 | 0.00 | 75 | 1011.4 |
| 20260508204049 | 73 | 44 | 0.0 | 3.5 | 0.00 | 0.00 | 0.00 | 75 | 1011.4 |
| 20260508203548 | 73 | 65 | 1.7 | 3.5 | 0.00 | 0.00 | 0.00 | 73 | 1011.3 |
| 20260508203109 | 73 | 259 | 0.9 | 2.6 | 0.00 | 0.00 | 0.00 | 76 | 1011.5 |
| 20260508203100 | 73 | 54 | 0.9 | 3.5 | 0.00 | 0.00 | 0.00 | 74 | 1011.3 |
| 20260508202548 | 73 | 57 | 0.9 | 3.5 | 0.00 | 0.00 | 0.00 | 74 | 1011.4 |
| 20260508202049 | 73 | 37 | 1.7 | 3.5 | 0.00 | 0.00 | 0.00 | 74 | 1011.2 |
| 20260508201600 | 72 | 343 | 1.7 | 4.3 | 0.00 | 0.00 | 0.00 | 75 | 1011.4 |
| 20260508201553 | 72 | 0 | 0.0 | 3.5 | 0.00 | 0.00 | 0.00 | 77 | 1011.5 |
| 20260508201048 | 73 | 352 | 1.7 | 4.3 | 0.00 | 0.00 | 0.00 | 74 | 1011.4 |
| 20260508200548 | 73 | 49 | 1.7 | 5.2 | 0.00 | 0.00 | 0.00 | 74 | 1011.5 |
| 20260508200055 | 72 | 259 | 2.6 | 5.2 | 0.00 | 0.00 | 0.00 | 76 | 1011.5 |
| 20260508200051 | 73 | 38 | 1.7 | 5.2 | 0.00 | 0.00 | 0.00 | 75 | 1011.5 |
| 20260508195547 | 73 | 72 | 2.6 | 5.2 | 0.00 | 0.00 | 0.00 | 75 | 1011.7 |
| 20260508195052 | 73 | 37 | 2.6 | 7.0 | 0.00 | 0.00 | 0.00 | 74 | 1011.6 |
| 20260508194555 | 71 | 0 | 1.7 | 5.2 | 0.00 | 0.00 | 0.00 | 77 | 1011.6 |
| 20260508194548 | 73 | 45 | 2.6 | 7.0 | 0.00 | 0.00 | 0.00 | 74 | 1011.5 |
| 20260508194048 | 74 | 44 | 1.7 | 7.0 | 0.00 | 0.00 | 0.00 | 73 | 1011.5 |
| 20260508193548 | 73 | 69 | 2.6 | 7.0 | 0.00 | 0.00 | 0.00 | 73 | 1011.5 |
| 20260508193126 | 71 | 261 | 1.7 | 3.5 | 0.00 | 0.00 | 0.00 | 77 | 1011.9 |
| 20260508193054 | 73 | 49 | 0.9 | 3.5 | 0.00 | 0.00 | 0.00 | 74 | 1011.6 |
| 20260508192552 | 72 | 30 | 1.7 | 3.5 | 0.00 | 0.00 | 0.00 | 74 | 1011.7 |
| 20260508192049 | 72 | 52 | 0.0 | 2.6 | 0.00 | 0.00 | 0.00 | 73 | 1012.0 |
| 20260508191553 | 71 | 72 | 0.9 | 2.6 | 0.00 | 0.00 | 0.00 | 75 | 1012.1 |
| 20260508191551 | 72 | 259 | 1.7 | 7.0 | 0.00 | 0.00 | 0.00 | 75 | 1012.1 |
| 20260508191048 | 71 | 103 | 0.9 | 2.6 | 0.00 | 0.00 | 0.00 | 75 | 1012.1 |
| 20260508190548 | 71 | 194 | 0.9 | 3.5 | 0.00 | 0.00 | 0.00 | 73 | 1012.4 |
| 20260508190054 | 71 | 234 | 2.6 | 5.2 | 0.00 | 0.00 | 0.00 | 76 | 1012.3 |
| 20260508190050 | 71 | 159 | 0.9 | 4.3 | 0.00 | 0.00 | 0.00 | 74 | 1012.4 |
| 20260508185552 | 71 | 0 | 0.9 | 5.2 | 0.00 | 0.00 | 0.00 | 76 | 1012.5 |
| 20260508185048 | 70 | 123 | 1.7 | 5.2 | 0.00 | 0.00 | 0.00 | 76 | 1012.5 |
| 20260508184622 | 71 | 241 | 1.7 | 6.1 | 0.00 | 0.00 | 0.00 | 76 | 1012.4 |
| 20260508184554 | 69 | 46 | 0.9 | 3.5 | 0.00 | 0.00 | 0.00 | 78 | 1012.4 |
| 20260508184050 | 68 | 77 | 0.9 | 3.5 | 0.00 | 0.00 | 0.00 | 77 | 1012.6 |
| 20260508183548 | 68 | 0 | 0.9 | 3.5 | 0.00 | 0.00 | 0.00 | 77 | 1013.0 |
| 20260508183052 | 68 | 118 | 0.9 | 5.2 | 0.00 | 0.00 | 0.00 | 78 | 1012.9 |
| 20260508183048 | 70 | 194 | 1.7 | 5.2 | 0.00 | 0.00 | 0.00 | 78 | 1013.0 |
| 20260508182549 | 68 | 116 | 1.7 | 5.2 | 0.00 | 0.00 | 0.00 | 80 | 1013.0 |
| 20260508182048 | 67 | 78 | 0.9 | 3.5 | 0.00 | 0.00 | 0.00 | 80 | 1012.8 |
| 20260508181558 | 67 | 63 | 1.7 | 6.1 | 0.00 | 0.00 | 0.00 | 79 | 1012.9 |
| 20260508181549 | 69 | 257 | 2.6 | 6.1 | 0.00 | 0.00 | 0.00 | 78 | 1013.2 |
| 20260508181048 | 67 | 129 | 0.9 | 6.1 | 0.00 | 0.00 | 0.00 | 78 | 1013.3 |
| 20260508180550 | 68 | 122 | 3.5 | 6.1 | 0.00 | 0.00 | 0.00 | 78 | 1013.3 |
| 20260508180100 | 69 | 252 | 1.7 | 7.0 | 0.00 | 0.00 | 0.00 | 77 | 1013.7 |
| 20260508180053 | 68 | 70 | 2.6 | 6.1 | 0.00 | 0.00 | 0.00 | 77 | 1013.4 |
| 20260508175548 | 68 | 115 | 2.6 | 7.0 | 0.00 | 0.00 | 0.00 | 77 | 1013.5 |
| 20260508175048 | 68 | 107 | 0.9 | 7.8 | 0.00 | 0.00 | 0.00 | 76 | 1013.6 |
| 20260508174608 | 68 | 77 | 3.5 | 8.7 | 0.00 | 0.00 | 0.00 | 75 | 1013.7 |
| 20260508174052 | 68 | 126 | 5.2 | 8.7 | 0.00 | 0.00 | 0.00 | 74 | 1013.7 |
| 20260508173548 | 68 | 83 | 3.5 | 10.4 | 0.00 | 0.00 | 0.00 | 74 | 1013.7 |
| 20260508173104 | 69 | 164 | 2.6 | 7.0 | 0.00 | 0.00 | 0.00 | 76 | 1014.0 |
| 20260508173051 | 69 | 96 | 6.1 | 10.4 | 0.00 | 0.00 | 0.00 | 74 | 1013.7 |
| 20260508172549 | 69 | 63 | 5.2 | 10.4 | 0.00 | 0.00 | 0.00 | 73 | 1013.6 |
| 20260508172049 | 68 | 36 | 3.5 | 7.8 | 0.00 | 0.00 | 0.00 | 75 | 1013.5 |
| 20260508171618 | 68 | 98 | 3.5 | 7.0 | 0.00 | 0.00 | 0.00 | 76 | 1014.0 |
| 20260508171552 | 68 | 45 | 3.5 | 8.7 | 0.00 | 0.00 | 0.00 | 74 | 1013.7 |
| 20260508171048 | 68 | 82 | 4.3 | 8.7 | 0.00 | 0.00 | 0.00 | 75 | 1013.7 |
| 20260508170548 | 67 | 62 | 4.3 | 8.7 | 0.00 | 0.00 | 0.00 | 75 | 1013.8 |
| 20260508170054 | 67 | 5 | 3.5 | 7.0 | 0.00 | 0.00 | 0.00 | 75 | 1013.8 |
| 20260508170047 | 68 | 141 | 1.7 | 5.2 | 0.00 | 0.00 | 0.00 | 77 | 1014.4 |
| 20260508165548 | 67 | 31 | 3.5 | 8.7 | 0.00 | 0.00 | 0.00 | 75 | 1014.0 |
| 20260508165048 | 67 | 25 | 3.5 | 8.7 | 0.00 | 0.00 | 0.00 | 76 | 1014.1 |
| 20260508164551 | 67 | 175 | 3.5 | 7.0 | 0.00 | 0.00 | 0.00 | 76 | 1014.7 |
| 20260508164549 | 67 | 19 | 2.6 | 7.0 | 0.00 | 0.00 | 0.00 | 77 | 1014.2 |
| 20260508164048 | 66 | 58 | 1.7 | 5.2 | 0.00 | 0.00 | 0.00 | 79 | 1014.1 |
| 20260508163548 | 66 | 41 | 2.6 | 7.0 | 0.00 | 0.00 | 0.00 | 79 | 1014.3 |
| 20260508163057 | 67 | 177 | 3.5 | 7.0 | 0.00 | 0.00 | 0.00 | 77 | 1014.8 |
| 20260508163053 | 65 | 43 | 2.6 | 7.8 | 0.00 | 0.00 | 0.00 | 79 | 1014.5 |
| 20260508162548 | 65 | 69 | 3.5 | 8.7 | 0.00 | 0.00 | 0.00 | 79 | 1014.6 |
| 20260508162048 | 65 | 18 | 4.3 | 8.7 | 0.00 | 0.00 | 0.00 | 79 | 1014.6 |
| 20260508161600 | 67 | 165 | 2.6 | 7.0 | 0.00 | 0.00 | 0.00 | 78 | 1015.0 |
| 20260508161552 | 65 | 32 | 6.1 | 8.7 | 0.00 | 0.00 | 0.00 | 79 | 1014.6 |
| 20260508161048 | 65 | 13 | 4.3 | 8.7 | 0.00 | 0.00 | 0.00 | 80 | 1014.5 |
| 20260508160551 | 65 | 9 | 4.3 | 7.0 | 0.00 | 0.00 | 0.00 | 80 | 1014.7 |
| 20260508160056 | 66 | 136 | 2.6 | 7.0 | 0.00 | 0.00 | 0.00 | 78 | 1015.3 |
| 20260508160049 | 65 | 16 | 3.5 | 7.0 | 0.00 | 0.00 | 0.00 | 80 | 1014.8 |
| 20260508155547 | 65 | 5 | 3.5 | 7.0 | 0.00 | 0.00 | 0.00 | 79 | 1014.8 |
| 20260508155050 | 65 | 360 | 3.5 | 7.0 | 0.00 | 0.00 | 0.00 | 79 | 1014.8 |
| 20260508154557 | 65 | 360 | 2.6 | 7.0 | 0.00 | 0.00 | 0.00 | 80 | 1014.7 |
| 20260508154549 | 66 | 128 | 1.7 | 6.1 | 0.00 | 0.00 | 0.00 | 80 | 1015.2 |
| 20260508154048 | 64 | 9 | 3.5 | 7.0 | 0.00 | 0.00 | 0.00 | 80 | 1014.7 |
| 20260508153549 | 64 | 333 | 3.5 | 7.0 | 0.00 | 0.00 | 0.00 | 80 | 1014.7 |
| 20260508153052 | 64 | 336 | 2.6 | 7.0 | 0.00 | 0.00 | 0.00 | 80 | 1014.9 |
| 20260508152548 | 64 | 5 | 2.6 | 5.2 | 0.00 | 0.00 | 0.00 | 80 | 1014.9 |
| 20260508152048 | 64 | 21 | 2.6 | 5.2 | 0.00 | 0.00 | 0.00 | 80 | 1014.9 |
| 20260508151556 | 65 | 119 | 2.6 | 4.3 | 0.00 | 0.00 | 0.00 | 80 | 1015.2 |
| 20260508151554 | 64 | 33 | 3.5 | 6.1 | 0.00 | 0.00 | 0.00 | 81 | 1015.0 |
| 20260508151050 | 63 | 13 | 3.5 | 6.1 | 0.00 | 0.00 | 0.00 | 81 | 1015.0 |
| 20260508150549 | 63 | 31 | 1.7 | 4.3 | 0.00 | 0.00 | 0.00 | 82 | 1015.0 |
| 20260508150053 | 63 | 34 | 1.7 | 3.5 | 0.00 | 0.00 | 0.00 | 81 | 1015.0 |
| 20260508150051 | 65 | 0 | 0.9 | 6.1 | 0.00 | 0.00 | 0.00 | 79 | 1015.6 |
| 20260508145549 | 63 | 355 | 1.7 | 4.3 | 0.00 | 0.00 | 0.00 | 81 | 1015.1 |
| 20260508145049 | 63 | 352 | 1.7 | 4.3 | 0.00 | 0.00 | 0.00 | 81 | 1014.9 |
| 20260508144551 | 65 | 143 | 1.7 | 5.2 | 0.00 | 0.00 | 0.00 | 79 | 1015.1 |
| 20260508144049 | 62 | 293 | 1.7 | 2.6 | 0.00 | 0.00 | 0.00 | 81 | 1014.8 |
| 20260508143549 | 62 | 0 | 0.9 | 3.5 | 0.00 | 0.00 | 0.00 | 81 | 1014.9 |
| 20260508143113 | 62 | 306 | 0.9 | 4.3 | 0.00 | 0.00 | 0.00 | 81 | 1015.0 |
| 20260508143053 | 65 | 107 | 0.9 | 3.5 | 0.00 | 0.00 | 0.00 | 80 | 1015.2 |
| 20260508142551 | 62 | 309 | 1.7 | 4.3 | 0.00 | 0.00 | 0.00 | 82 | 1014.9 |
| 20260508142051 | 62 | 317 | 2.6 | 4.3 | 0.00 | 0.00 | 0.00 | 82 | 1014.9 |
| 20260508141614 | 62 | 317 | 1.7 | 4.3 | 0.00 | 0.00 | 0.00 | 81 | 1014.7 |
| 20260508141552 | 65 | 108 | 2.6 | 5.2 | 0.00 | 0.00 | 0.00 | 81 | 1015.1 |
| 20260508141050 | 62 | 332 | 1.7 | 4.3 | 0.00 | 0.00 | 0.00 | 81 | 1015.0 |
| 20260508140551 | 62 | 309 | 1.7 | 4.3 | 0.00 | 0.00 | 0.00 | 83 | 1015.0 |
| 20260508140056 | 63 | 219 | 1.7 | 3.5 | 0.00 | 0.00 | 0.00 | 84 | 1015.3 |
| 20260508140054 | 61 | 323 | 1.7 | 3.5 | 0.00 | 0.00 | 0.00 | 83 | 1015.1 |
| 20260508135550 | 61 | 312 | 1.7 | 3.5 | 0.00 | 0.00 | 0.00 | 84 | 1015.1 |